Location: Adavinekkalam
(16.6301°N, 80.7229°E)
Time: 11:08:06
(UTC+00:00)

Cosmos 1869 - Pass Details

Date: 15 May 2026
Orbit: 441 x 468 km, 82.5° (Epoch: 5 June)

Event Time Altitude Azimuth Distance (km) Brightness Sun altitude
Rises 23:22:09 0° 6° (N) 2,430 7.1 -10.6°
Reaches altitude 10° 23:24:18 10° 15° (NNE) 1,556 6.2 -10.1°
Maximum altitude 23:27:28 38° 84° (E) 693 4.5 -9.4°
Drops below altitude 10° 23:30:38 10° 154° (SSE) 1,549 5.7 -8.7°
Sets 23:32:46 0° 162° (SSE) 2,417 6.6 -8.3°
